Location: Boiro
(42.6475°N, 8.8834°W)
Time: 12:06:27
(UTC+01:00)

Altair - Pass Details

Date: 06 December 2021
Orbit: 1501 x 1683 km, 47.2° (Epoch: 21 January)

Event Time Altitude Azimuth Distance (km) Brightness Sun altitude
Rises 23:43:24 0° 294° (WNW) 4,655 10.5 -60.6°
Reaches altitude 10° 23:46:50 10° 285° (WNW) 3,660 9.7 -61.1°
Enters shadow 23:47:09 11° 284° (WNW) 3,572 9.7 -61.2°
